<?xml version="1.0"?>
<gpx xmlns="http://www.topografix.com/GPX/1/1" xmlns:xsi="http://www.w3.org/2001/XMLSchema-instance" version="1.1" creator="GPX RubyGem 1.0.0 -- http://dougfales.github.io/gpx/" xsi:schemaLocation="http://www.topografix.com/GPX/1/1 http://www.topografix.com/GPX/1/1/gpx.xsd">
  <metadata>
    <name/>
    <time>2026-05-10T02:01:43+00:00</time>
    <bound minlat="90.0" minlon="180.0" maxlat="-90.0" maxlon="-180.0"/>
  </metadata>
  <trk>
    <name/>
    <trkseg>
      <trkpt lat="51.766155" lon="11.932604">
        <time>1970-01-01T00:00:00+00:00</time>
        <ele>72.0</ele>
      </trkpt>
      <trkpt lat="51.766341" lon="11.932136">
        <time>1970-01-01T00:00:00+00:00</time>
        <ele>73.0</ele>
      </trkpt>
      <trkpt lat="51.766212" lon="11.93201">
        <time>1970-01-01T00:00:00+00:00</time>
        <ele>73.0</ele>
      </trkpt>
      <trkpt lat="51.766663" lon="11.930982">
        <time>1970-01-01T00:00:00+00:00</time>
        <ele>72.0</ele>
      </trkpt>
      <trkpt lat="51.767435" lon="11.929302">
        <time>1970-01-01T00:00:00+00:00</time>
        <ele>71.0</ele>
      </trkpt>
      <trkpt lat="51.768349" lon="11.927117">
        <time>1970-01-01T00:00:00+00:00</time>
        <ele>71.0</ele>
      </trkpt>
      <trkpt lat="51.768848" lon="11.926005">
        <time>1970-01-01T00:00:00+00:00</time>
        <ele>71.0</ele>
      </trkpt>
      <trkpt lat="51.76896" lon="11.925783">
        <time>1970-01-01T00:00:00+00:00</time>
        <ele>71.0</ele>
      </trkpt>
      <trkpt lat="51.769125" lon="11.925551">
        <time>1970-01-01T00:00:00+00:00</time>
        <ele>70.0</ele>
      </trkpt>
      <trkpt lat="51.769602" lon="11.924947">
        <time>1970-01-01T00:00:00+00:00</time>
        <ele>70.0</ele>
      </trkpt>
      <trkpt lat="51.770238" lon="11.924171">
        <time>1970-01-01T00:00:00+00:00</time>
        <ele>72.0</ele>
      </trkpt>
      <trkpt lat="51.772621" lon="11.922551">
        <time>1970-01-01T00:00:00+00:00</time>
        <ele>71.0</ele>
      </trkpt>
      <trkpt lat="51.772784" lon="11.922396">
        <time>1970-01-01T00:00:00+00:00</time>
        <ele>71.0</ele>
      </trkpt>
      <trkpt lat="51.772854" lon="11.922471">
        <time>1970-01-01T00:00:00+00:00</time>
        <ele>71.0</ele>
      </trkpt>
      <trkpt lat="51.774078" lon="11.923431">
        <time>1970-01-01T00:00:00+00:00</time>
        <ele>72.0</ele>
      </trkpt>
      <trkpt lat="51.774188" lon="11.923523">
        <time>1970-01-01T00:00:00+00:00</time>
        <ele>73.0</ele>
      </trkpt>
      <trkpt lat="51.774939" lon="11.924141">
        <time>1970-01-01T00:00:00+00:00</time>
        <ele>71.0</ele>
      </trkpt>
      <trkpt lat="51.775129" lon="11.92427">
        <time>1970-01-01T00:00:00+00:00</time>
        <ele>71.0</ele>
      </trkpt>
      <trkpt lat="51.775328" lon="11.924319">
        <time>1970-01-01T00:00:00+00:00</time>
        <ele>71.0</ele>
      </trkpt>
      <trkpt lat="51.776628" lon="11.924579">
        <time>1970-01-01T00:00:00+00:00</time>
        <ele>73.0</ele>
      </trkpt>
      <trkpt lat="51.776218" lon="11.925936">
        <time>1970-01-01T00:00:00+00:00</time>
        <ele>75.0</ele>
      </trkpt>
      <trkpt lat="51.775964" lon="11.926823">
        <time>1970-01-01T00:00:00+00:00</time>
        <ele>75.0</ele>
      </trkpt>
      <trkpt lat="51.775787" lon="11.927441">
        <time>1970-01-01T00:00:00+00:00</time>
        <ele>76.0</ele>
      </trkpt>
      <trkpt lat="51.775515" lon="11.928482">
        <time>1970-01-01T00:00:00+00:00</time>
        <ele>78.0</ele>
      </trkpt>
      <trkpt lat="51.775337" lon="11.929161">
        <time>1970-01-01T00:00:00+00:00</time>
        <ele>77.0</ele>
      </trkpt>
      <trkpt lat="51.775294" lon="11.929357">
        <time>1970-01-01T00:00:00+00:00</time>
        <ele>76.0</ele>
      </trkpt>
      <trkpt lat="51.775285" lon="11.929519">
        <time>1970-01-01T00:00:00+00:00</time>
        <ele>76.0</ele>
      </trkpt>
      <trkpt lat="51.775327" lon="11.929639">
        <time>1970-01-01T00:00:00+00:00</time>
        <ele>77.0</ele>
      </trkpt>
      <trkpt lat="51.775405" lon="11.929713">
        <time>1970-01-01T00:00:00+00:00</time>
        <ele>77.0</ele>
      </trkpt>
      <trkpt lat="51.775567" lon="11.929784">
        <time>1970-01-01T00:00:00+00:00</time>
        <ele>78.0</ele>
      </trkpt>
      <trkpt lat="51.775567" lon="11.929784">
        <time>1970-01-01T00:00:00+00:00</time>
        <ele>78.0</ele>
      </trkpt>
      <trkpt lat="51.775405" lon="11.929713">
        <time>1970-01-01T00:00:00+00:00</time>
        <ele>77.0</ele>
      </trkpt>
      <trkpt lat="51.775327" lon="11.929639">
        <time>1970-01-01T00:00:00+00:00</time>
        <ele>77.0</ele>
      </trkpt>
      <trkpt lat="51.775285" lon="11.929519">
        <time>1970-01-01T00:00:00+00:00</time>
        <ele>76.0</ele>
      </trkpt>
      <trkpt lat="51.775294" lon="11.929357">
        <time>1970-01-01T00:00:00+00:00</time>
        <ele>76.0</ele>
      </trkpt>
      <trkpt lat="51.775337" lon="11.929161">
        <time>1970-01-01T00:00:00+00:00</time>
        <ele>77.0</ele>
      </trkpt>
      <trkpt lat="51.775515" lon="11.928482">
        <time>1970-01-01T00:00:00+00:00</time>
        <ele>78.0</ele>
      </trkpt>
      <trkpt lat="51.775787" lon="11.927441">
        <time>1970-01-01T00:00:00+00:00</time>
        <ele>76.0</ele>
      </trkpt>
      <trkpt lat="51.775964" lon="11.926823">
        <time>1970-01-01T00:00:00+00:00</time>
        <ele>75.0</ele>
      </trkpt>
      <trkpt lat="51.776218" lon="11.925936">
        <time>1970-01-01T00:00:00+00:00</time>
        <ele>75.0</ele>
      </trkpt>
      <trkpt lat="51.776628" lon="11.924579">
        <time>1970-01-01T00:00:00+00:00</time>
        <ele>73.0</ele>
      </trkpt>
      <trkpt lat="51.775328" lon="11.924319">
        <time>1970-01-01T00:00:00+00:00</time>
        <ele>71.0</ele>
      </trkpt>
      <trkpt lat="51.775129" lon="11.92427">
        <time>1970-01-01T00:00:00+00:00</time>
        <ele>71.0</ele>
      </trkpt>
      <trkpt lat="51.774939" lon="11.924141">
        <time>1970-01-01T00:00:00+00:00</time>
        <ele>71.0</ele>
      </trkpt>
      <trkpt lat="51.774188" lon="11.923523">
        <time>1970-01-01T00:00:00+00:00</time>
        <ele>73.0</ele>
      </trkpt>
      <trkpt lat="51.774078" lon="11.923431">
        <time>1970-01-01T00:00:00+00:00</time>
        <ele>72.0</ele>
      </trkpt>
      <trkpt lat="51.772854" lon="11.922471">
        <time>1970-01-01T00:00:00+00:00</time>
        <ele>71.0</ele>
      </trkpt>
      <trkpt lat="51.772784" lon="11.922396">
        <time>1970-01-01T00:00:00+00:00</time>
        <ele>71.0</ele>
      </trkpt>
      <trkpt lat="51.772621" lon="11.922551">
        <time>1970-01-01T00:00:00+00:00</time>
        <ele>71.0</ele>
      </trkpt>
      <trkpt lat="51.770238" lon="11.924171">
        <time>1970-01-01T00:00:00+00:00</time>
        <ele>72.0</ele>
      </trkpt>
      <trkpt lat="51.769602" lon="11.924947">
        <time>1970-01-01T00:00:00+00:00</time>
        <ele>70.0</ele>
      </trkpt>
      <trkpt lat="51.769125" lon="11.925551">
        <time>1970-01-01T00:00:00+00:00</time>
        <ele>70.0</ele>
      </trkpt>
      <trkpt lat="51.76896" lon="11.925783">
        <time>1970-01-01T00:00:00+00:00</time>
        <ele>71.0</ele>
      </trkpt>
      <trkpt lat="51.768848" lon="11.926005">
        <time>1970-01-01T00:00:00+00:00</time>
        <ele>71.0</ele>
      </trkpt>
      <trkpt lat="51.768349" lon="11.927117">
        <time>1970-01-01T00:00:00+00:00</time>
        <ele>71.0</ele>
      </trkpt>
      <trkpt lat="51.767435" lon="11.929302">
        <time>1970-01-01T00:00:00+00:00</time>
        <ele>71.0</ele>
      </trkpt>
      <trkpt lat="51.766663" lon="11.930982">
        <time>1970-01-01T00:00:00+00:00</time>
        <ele>72.0</ele>
      </trkpt>
      <trkpt lat="51.766212" lon="11.93201">
        <time>1970-01-01T00:00:00+00:00</time>
        <ele>73.0</ele>
      </trkpt>
      <trkpt lat="51.766341" lon="11.932136">
        <time>1970-01-01T00:00:00+00:00</time>
        <ele>73.0</ele>
      </trkpt>
      <trkpt lat="51.766155" lon="11.932604">
        <time>1970-01-01T00:00:00+00:00</time>
        <ele>72.0</ele>
      </trkpt>
    </trkseg>
  </trk>
</gpx>
